Facebook Twitter

Wetterstation Laupheim

Messwerte
  Temperatur Wetter Niederschlag Luftdruck Wind
Fr, 12:00 Uhr 15° - 1033 hPa 7 km/h S
Fr, 11:00 Uhr 13° - 1034 hPa 4 km/h O
Fr, 10:00 Uhr 10° - 1035 hPa 7 km/h NW
Fr, 09:00 Uhr 8° - 1035 hPa 7 km/h SW
Fr, 08:00 Uhr 6° 0 mm 1035 hPa 7 km/h S
Fr, 07:00 Uhr 4° - 1036 hPa 4 km/h S
Fr, 06:00 Uhr 4° - 1036 hPa 4 km/h SW
Fr, 05:00 Uhr 4° - 1036 hPa 4 km/h W
Fr, 04:00 Uhr 4° - 1035 hPa 4 km/h S
Fr, 02:00 Uhr 6° - 1035 hPa 7 km/h O
Fr, 01:00 Uhr 6° - 1035 hPa 0 km/h O
Fr, 00:00 Uhr 8° - 1035 hPa 4 km/h S
Do, 23:00 Uhr 9° - 1034 hPa 4 km/h SW
Do, 22:00 Uhr 10° - 1034 hPa 4 km/h O
Do, 21:00 Uhr 12° - 1033 hPa 4 km/h SO
Do, 20:00 Uhr 13° 0 mm 1033 hPa 7 km/h S
Do, 19:00 Uhr 14° - 1032 hPa 7 km/h O
Do, 18:00 Uhr 15° - 1032 hPa 11 km/h O
Do, 17:00 Uhr 15° - 1032 hPa 7 km/h O
Do, 16:00 Uhr 14° - 1033 hPa 11 km/h NO

Alle Zeitangaben MESZ